Погода в Успенском

Россия / Сахалинская область     46°51′06″N   142°34′59″E
темп.,
°C
ветер,
м/с
пор.,
м/с
влажн.,
%
обл.,
%
осадки,
мм/ч
давл.,
гПа
погр.,
м
29 июня, ср
ср2923:00+13в2398100 0.0 100457
02:00+12вюв2297100 0.0 100325
05:00+12ссв2291100 0.0 100317
08:00+12св2389100 0.0 1003159
11:00+16в237861 0.0 1004473
14:00+16ю448165 0.0 1004284
17:00+16ю558070 0.0 1005335
20:00+13ю3488100 0.0 1008145
30 июня, чт
чт3023:00+11ю229230 0.0 100916
02:00+11ююз119299 0.0 101039
05:00+11ююз119252 0.0 101032
08:00+12ю119015 0.0 1012147
11:00+14ююв328650 0.0 1013396
14:00+14ю3384100 0.0 1013271
17:00+14ююв3383100 0.0 1014222
20:00+13ююв2386100 0.0 1015128
1 июля, пт
пт123:00+12ю2289100 0.0 101699
02:00+10юв0193100 0.0 101610
05:00+10ююз119350 0.0 101610
08:00+12ю12880 0.0 1017126
11:00+14ююв33845 0.0 1016296
14:00+15ююв448516 0.0 1016261
17:00+15ююв348512 0.0 1014211
20:00+13юв22914 0.0 1014103
2 июля, сб
сб223:00+11с11958 0.0 101412
02:00+12зсз11900 0.0 101311
05:00+12зсз119692 0.0 101212
08:00+16ююз149458 0.1 1012222
11:00+21юз35767 0.1 1011497
14:00+24юз45658 0.0 1009598
17:00+24зюз5667100 0.0 1008518
20:00+20юз35845 0.0 1008121
3 июля, вс
вс323:00+16з229591 0.0 100827
02:00+15з229612 0.0 100812
05:00+14зсз229720 0.0 100714
08:00+17ссз019414 0.0 1007110
11:00+19юв228733 0.0 1008327
14:00+18ю4489100 0.0 1008270
17:00+19ююв348271 0.0 1009280
20:00+17юв358420 0.0 1010181